Location: Washington
(38.8950°N, 77.0370°W)
Time: 04:11:15
(UTC-04:00)

Amateur Radio Satellites - All Passes

Search period start: 25 July 2016 03:41
Search period end: 26 July 2016 03:41
Location: Washington, 38.8950°N, 77.0370°W

Satellite Date Start Highest point End Downlink Frequencies (MHz)
Time Altitude Azimuth
DANDE 25 Jul 03:45:12 03:47:07 12° 91° (E) 03:48:55 436.750
CUSAT 1 25 Jul 03:45:22 03:49:01 23° 96° (E) 03:52:00 437.405
PCSat 25 Jul 03:50:56 03:52:56 12° 41° (NE) 03:54:56 145.827
Gurwin Techsat 1B 25 Jul 03:53:22 03:58:27 46° 289° (WNW) 04:03:30 435.225
BEESAT 3 25 Jul 03:56:12 03:59:40 28° 52° (NE) 04:03:08 437.485
Cosmos 2499 25 Jul 03:57:06 04:05:03 87° 264° (W) 04:12:23 435.465 / 435.565
BEESAT 2 25 Jul 03:57:35 04:00:20 18° 47° (NE) 04:03:04 435.950
KKS-1 25 Jul 04:00:45 04:05:07 63° 74° (ENE) 04:09:32 437.445
ISS 25 Jul 04:08:10 04:10:44 21° 26° (NNE) 04:13:18 145.825
MOZHAYETS 4 25 Jul 04:16:20 04:20:58 86° 258° (WSW) 04:25:38
ITAMSAT 1 25 Jul 04:22:31 04:27:43 74° 286° (WNW) 04:32:52 435.822/435.867
STARS 25 Jul 04:46:25 04:50:48 82° 257° (WSW) 04:55:14 437.465
JUGNU 25 Jul 04:48:12 04:49:55 11° 179° (S) 04:51:39 437.505
AO-7 25 Jul 05:01:10 05:09:34 79° 106° (ESE) 05:17:53 29.400- 29.500
HORYU 2 25 Jul 05:17:52 05:21:19 21° 95° (E) 05:24:44 437.375
DANDE 25 Jul 05:23:33 05:29:47 74° 280° (W) 05:34:24 436.750
GONETS M04 25 Jul 05:23:58 05:29:35 19° 281° (WNW) 05:35:14
CUSAT 1 25 Jul 05:27:37 05:30:53 20° 282° (WNW) 05:33:38 437.405
CUBESAT XI-V 25 Jul 05:28:55 05:33:30 66° 75° (ENE) 05:38:05 437.345
PCSat 25 Jul 05:31:56 05:37:21 69° 60° (ENE) 05:42:44 145.827
BEESAT 3 25 Jul 05:34:04 05:37:13 23° 248° (WSW) 05:40:20 437.485
BEESAT 2 25 Jul 05:34:34 05:38:22 43° 244° (WSW) 05:42:09 435.950
AIST 2 25 Jul 05:37:58 05:39:27 12° 42° (NE) 05:40:56 435.215
KKS-1 25 Jul 05:40:58 05:42:05 11° 269° (W) 05:43:12 437.445
ISS 25 Jul 05:44:11 05:47:21 52° 223° (SW) 05:50:31 145.825
Cosmos 2499 25 Jul 05:53:26 05:56:42 13° 284° (WNW) 05:59:55 435.465 / 435.565
STRAND 1 25 Jul 06:02:18 06:03:16 11° 59° (ENE) 06:04:15 437.568
NOAA 15 25 Jul 06:12:20 06:15:58 19° 93° (E) 06:19:34 137.62
BRITE-PL 25 Jul 06:23:12 06:27:28 31° 97° (E) 06:31:59 437.365/2234.400
RS-15 25 Jul 06:33:02 06:42:59 37° 105° (ESE) 06:53:20 29.354- 29.394
LilacSat-2 25 Jul 06:38:18 06:41:13 20° 94° (E) 06:44:06 437.200
HORYU 2 25 Jul 06:53:54 06:57:54 33° 290° (WNW) 07:01:53 437.375
AO-7 25 Jul 06:55:14 07:01:27 24° 305° (NW) 07:07:39 29.400- 29.500
Cubesat XI-IV 25 Jul 06:58:22 07:03:20 38° 98° (E) 07:08:16 437.490
SRMSAT 25 Jul 07:00:16 07:01:56 11° 178° (S) 07:03:36 437.500
CUBESAT XI-V 25 Jul 07:09:59 07:11:17 11° 270° (W) 07:12:35 437.345
AIST 2 25 Jul 07:14:19 07:18:31 86° 241° (WSW) 07:22:41 435.215
O/OREOS (USA 219) 25 Jul 07:16:10 07:20:38 57° 66° (ENE) 07:25:07 437.305
PCSat 25 Jul 07:17:11 07:20:06 15° 257° (WSW) 07:23:00 145.827
CUTE-I 25 Jul 07:22:36 07:27:56 66° 102° (ESE) 07:33:12 437.470
STRAND 1 25 Jul 07:36:28 07:41:38 86° 74° (ENE) 07:46:49 437.568
GOMX 1 25 Jul 07:37:29 07:42:31 81° 103° (ESE) 07:47:51 467.674
NOAA 18 25 Jul 07:38:14 07:43:50 88° 105° (ESE) 07:49:21 137.9125
DOVE 4 25 Jul 07:42:52 07:47:46 43° 98° (E) 07:52:46 437.250
NOAA 15 25 Jul 07:50:54 07:55:59 51° 289° (WNW) 08:01:03 137.62
PRISM 25 Jul 07:54:06 07:56:24 15° 65° (ENE) 07:58:43 437.425
BRITE-PL 25 Jul 08:01:49 08:05:50 28° 290° (WNW) 08:10:06 437.365/2234.400
LilacSat-2 25 Jul 08:12:16 08:15:28 25° 290° (WNW) 08:18:41 437.200
CINEMA 3 25 Jul 08:12:34 08:16:44 26° 94° (E) 08:20:51 145.822/145.860
YUBILEINY 25 Jul 08:31:30 08:33:53 11° 74° (ENE) 08:36:15 435.215
CANX-2 25 Jul 08:34:04 08:37:55 34° 97° (E) 08:41:44 2200.000
Cubesat XI-IV 25 Jul 08:38:49 08:43:12 26° 294° (WNW) 08:47:32 437.490
RS-15 25 Jul 08:43:19 08:54:41 64° 307° (NW) 09:06:44 29.354- 29.394
AAUSAT CUBESAT 2 25 Jul 08:44:14 08:46:26 14° 92° (E) 08:48:38 437.432
CUTE 1.7 + AOD 2 25 Jul 08:47:50 08:51:52 42° 98° (E) 08:55:51 437.475
Cosmos 2491 25 Jul 08:53:07 09:01:27 46° 75° (ENE) 09:09:45 435.465 / 435.565
O/OREOS (USA 219) 25 Jul 08:57:37 08:59:30 12° 262° (W) 09:01:23 437.305
SO-50 25 Jul 08:58:01 09:02:51 66° 118° (ESE) 09:07:41 436.795
HO-68 25 Jul 09:00:37 09:07:46 61° 102° (ESE) 09:14:50 435.675
CUTE-I 25 Jul 09:04:15 09:07:23 16° 298° (WNW) 09:10:30 437.470
GOMX 1 25 Jul 09:18:02 09:20:00 12° 297° (WNW) 09:22:00 467.674
UWE-3 25 Jul 09:18:36 09:22:18 23° 94° (E) 09:25:54 435.000/436.395/437.385
DOVE 4 25 Jul 09:21:14 09:25:09 23° 293° (WNW) 09:29:09 437.250
NOAA 18 25 Jul 09:21:18 09:23:40 13° 302° (WNW) 09:26:02 137.9125
ZACube-1 25 Jul 09:25:00 09:27:59 17° 92° (E) 09:30:55 437.345
FUNcube-1 25 Jul 09:25:32 09:28:20 16° 92° (E) 09:31:05 145.935
PRISM 25 Jul 09:27:30 09:31:21 41° 261° (W) 09:35:14 437.425
SEEDS 25 Jul 09:31:13 09:35:25 82° 284° (WNW) 09:39:33 437.485
CUBEBUG 2 25 Jul 09:35:06 09:39:46 53° 99° (E) 09:44:16 437.445
TIGRISAT 25 Jul 09:37:35 09:40:40 18° 65° (ENE) 09:43:47 435.000
Cosmos 2504 25 Jul 09:45:35 09:48:30 12° 74° (ENE) 09:51:26 435.465 / 435.565
COMPASS 1 25 Jul 09:47:23 09:51:31 77° 285° (WNW) 09:55:38 437.405
CINEMA 3 25 Jul 09:49:19 09:53:51 35° 290° (WNW) 09:58:21 145.822/145.860
UNISAT 6 25 Jul 09:52:16 09:56:06 27° 68° (ENE) 10:00:00 437.425
Oscar 11 25 Jul 10:10:02 10:14:18 56° 100° (E) 10:18:31 145.826/435.025
CANX-2 25 Jul 10:10:34 10:13:31 19° 293° (WNW) 10:16:27 2200.000
AAUSAT CUBESAT 2 25 Jul 10:18:13 10:22:06 41° 287° (WNW) 10:25:58 437.432
YUBILEINY 25 Jul 10:20:13 10:28:55 71° 93° (E) 10:37:41 435.215
CUTE 1.7 + AOD 2 25 Jul 10:24:52 10:27:20 15° 294° (WNW) 10:29:47 437.475
M-CUBED/EXP-1 PRIME 25 Jul 10:26:37 10:30:33 26° 100° (E) 10:34:28 437.505
ANTELSAT 25 Jul 10:29:58 10:34:31 66° 75° (ENE) 10:39:11 437.575/2403.000
SO-50 25 Jul 10:40:26 10:43:47 18° 316° (NW) 10:47:07 436.795
QB50P2 25 Jul 10:45:13 10:47:42 15° 65° (ENE) 10:50:10 145.880/145.840
POLYITAN 1 25 Jul 10:47:47 10:50:20 16° 65° (ENE) 10:52:53 437.675
HO-68 25 Jul 10:49:15 10:54:57 26° 300° (WNW) 11:00:37 435.675
Cosmos 2491 25 Jul 10:50:17 10:58:02 37° 274° (W) 11:05:49 435.465 / 435.565
AUBIESAT-1 25 Jul 10:54:21 10:58:46 42° 103° (ESE) 11:03:08 437.475
UWE-3 25 Jul 10:54:40 10:58:45 31° 290° (WNW) 11:02:44 435.000/436.395/437.385
HUMSAT D 25 Jul 10:58:32 11:02:29 38° 98° (E) 11:06:21 437.325/437.525
DELFI C3 25 Jul 10:59:43 11:03:40 87° 282° (WNW) 11:07:36 145.870
ZACube-1 25 Jul 11:00:12 11:04:26 40° 288° (WNW) 11:08:34 437.345
FUNcube-1 25 Jul 11:00:31 11:04:47 43° 288° (WNW) 11:08:56 145.935
RS-15 25 Jul 11:01:11 11:10:16 24° 336° (NNW) 11:19:42 29.354- 29.394
JAS-2 25 Jul 11:08:51 11:10:54 12° 61° (ENE) 11:12:54 435.910
TIGRISAT 25 Jul 11:12:34 11:16:57 45° 261° (W) 11:21:27 435.000
CUBEBUG 2 25 Jul 11:13:04 11:15:52 16° 296° (WNW) 11:18:38 437.445
UNISAT 6 25 Jul 11:28:42 11:32:41 29° 264° (W) 11:36:45 437.425
NANOSAT C BR1 25 Jul 11:31:21 11:35:21 43° 73° (ENE) 11:39:24 145.865
Cosmos 2504 25 Jul 11:31:29 11:40:12 70° 93° (E) 11:49:00 435.465 / 435.565
DUCHIFAT 1 25 Jul 11:36:42 11:40:43 47° 73° (ENE) 11:44:48 145.980
Oscar 11 25 Jul 11:48:02 11:49:55 13° 296° (WNW) 11:51:49 145.826/435.025
QB50P1 25 Jul 11:52:12 11:56:26 83° 77° (ENE) 12:00:43 145.935-145.965
POPSAT HIP 1 25 Jul 11:58:25 12:02:40 85° 257° (WSW) 12:06:57 437.405
BUGSAT 1 25 Jul 12:00:43 12:04:28 37° 72° (ENE) 12:08:17 437.445
M-CUBED/EXP-1 PRIME 25 Jul 12:00:49 12:05:00 33° 295° (WNW) 12:09:12 437.505
AISAT 25 Jul 12:10:06 12:13:43 24° 95° (E) 12:17:20 437.250
ANTELSAT 25 Jul 12:10:14 12:11:40 11° 271° (W) 12:13:07 437.575/2403.000
DX 1 25 Jul 12:17:55 12:21:07 20° 95° (E) 12:24:17 434.975-435.025
QB50P2 25 Jul 12:19:03 12:23:06 44° 261° (W) 12:27:12 145.880/145.840
YUBILEINY 25 Jul 12:19:43 12:26:29 24° 293° (WNW) 12:33:20 435.215
POLYITAN 1 25 Jul 12:21:42 12:25:44 43° 261° (W) 12:29:51 437.675
AUBIESAT-1 25 Jul 12:29:27 12:32:54 21° 298° (WNW) 12:36:21 437.475
Oscar 19 25 Jul 12:32:29 12:35:43 17° 63° (ENE) 12:38:58 437.125/150
HUMSAT D 25 Jul 12:35:06 12:37:46 17° 294° (WNW) 12:40:24 437.325/437.525
ESTCUBE 1 25 Jul 12:35:20 12:39:51 79° 104° (ESE) 12:44:19 437.505/2401.250
UKube-1 25 Jul 12:35:28 12:39:00 24° 96° (E) 12:42:29 .
JAS-2 25 Jul 12:49:03 12:55:21 88° 76° (ENE) 13:00:58 435.910
50 SAT 25 Jul 12:57:39 13:01:16 86° 286° (WNW) 13:04:51 437.505
VELOX 1 25 Jul 13:01:13 13:05:40 86° 99° (E) 13:10:08 145.980
CUBEBUG 1 25 Jul 13:08:11 13:12:34 67° 284° (WNW) 13:16:55 437.445
NANOSAT C BR1 25 Jul 13:08:59 13:11:17 14° 268° (W) 13:13:37 145.865
SPROUT 25 Jul 13:12:30 13:16:45 53° 100° (E) 13:20:57 437.525
DUCHIFAT 1 25 Jul 13:14:37 13:16:39 13° 268° (W) 13:18:43 145.980
RS-15 25 Jul 13:20:35 13:29:05 21° 13° (NNE) 13:37:39 29.354- 29.394
Cosmos 2504 25 Jul 13:27:15 13:34:17 26° 292° (WNW) 13:41:22 435.465 / 435.565
Gurwin Techsat 1B 25 Jul 13:34:04 13:38:37 30° 67° (ENE) 13:43:11 435.225
BUGSAT 1 25 Jul 13:37:31 13:39:59 16° 267° (W) 13:42:30 437.445
AISAT 25 Jul 13:46:18 13:50:09 29° 291° (WNW) 13:54:00 437.250
AIST 1 25 Jul 13:47:36 13:51:40 47° 93° (E) 13:55:46
DX 1 25 Jul 13:53:24 13:57:21 34° 290° (WNW) 14:01:18 434.975-435.025
ITAMSAT 1 25 Jul 14:01:53 14:05:22 18° 63° (ENE) 14:08:52 435.822/435.867
AO-7 25 Jul 14:09:14 14:15:01 21° 53° (NE) 14:20:47 29.400- 29.500
Oscar 19 25 Jul 14:09:32 14:14:33 56° 259° (W) 14:19:36 437.125/150
UKube-1 25 Jul 14:11:18 14:14:59 28° 291° (WNW) 14:18:39 .
TISAT 1 25 Jul 14:15:40 14:19:53 63° 101° (E) 14:24:06 437.305
GONETS M04 25 Jul 14:31:52 14:37:10 18° 78° (ENE) 14:42:28
AO-85 25 Jul 14:32:00 14:37:20 62° 117° (ESE) 14:42:29 145.980
JAS-2 25 Jul 14:39:17 14:40:53 11° 269° (W) 14:42:28 435.910
Cosmos 2499 25 Jul 14:42:18 14:46:46 15° 77° (ENE) 14:51:11 435.465 / 435.565
SPROUT 25 Jul 14:50:06 14:52:13 13° 296° (WNW) 14:54:19 437.525
SWISSCUBE 25 Jul 14:52:42 14:56:55 31° 97° (E) 15:01:05 437.505
Gurwin Techsat 1B 25 Jul 15:13:42 15:18:27 33° 263° (W) 15:23:14 435.225
BEESAT 25 Jul 15:14:02 15:18:38 46° 99° (E) 15:23:12 436.000
AIST 1 25 Jul 15:27:38 15:29:33 13° 289° (WNW) 15:31:29
RS-15 25 Jul 15:34:16 15:46:01 46° 45° (NE) 15:57:38 29.354- 29.394
ITUPSAT 1 25 Jul 15:35:40 15:40:27 78° 101° (ESE) 15:45:12 437.325
ITAMSAT 1 25 Jul 15:39:16 15:44:23 55° 259° (W) 15:49:32 435.822/435.867
TISAT 1 25 Jul 15:53:38 15:54:59 11° 297° (WNW) 15:56:20 437.305
KKS-1 25 Jul 15:54:37 15:56:48 13° 92° (E) 15:58:58 437.445
AO-7 25 Jul 15:58:20 16:06:43 88° 250° (WSW) 16:15:09 29.400- 29.500
CUSAT 1 25 Jul 15:59:44 16:02:27 33° 263° (W) 16:05:42 437.405
DANDE 25 Jul 16:03:52 16:06:25 51° 80° (E) 16:09:10 436.750
MOZHAYETS 4 25 Jul 16:13:13 16:16:56 24° 95° (E) 16:20:36
AO-85 25 Jul 16:14:10 16:18:11 21° 314° (NW) 16:22:05 145.980
HORYU 2 25 Jul 16:15:08 16:18:12 18° 66° (ENE) 16:21:16 437.375
GONETS M04 25 Jul 16:24:05 16:32:46 84° 277° (W) 16:41:33
Cosmos 2499 25 Jul 16:29:38 16:38:31 81° 95° (E) 16:47:17 435.465 / 435.565
SWISSCUBE 25 Jul 16:30:39 16:34:33 26° 293° (WNW) 16:38:27 437.505
STARS 25 Jul 16:37:52 16:41:07 20° 94° (E) 16:44:20 437.465
BEESAT 25 Jul 16:52:51 16:56:02 18° 295° (WNW) 16:59:13 436.000
CUTE-I 25 Jul 17:07:05 17:09:12 12° 59° (ENE) 17:11:20 437.470
ITUPSAT 1 25 Jul 17:16:08 17:17:37 11° 299° (WNW) 17:19:04 437.325
NOAA 18 25 Jul 17:24:51 17:28:44 20° 62° (ENE) 17:32:37 137.9125
CUBESAT XI-V 25 Jul 17:27:41 17:30:48 18° 93° (E) 17:33:55 437.345
KKS-1 25 Jul 17:29:16 17:33:39 53° 287° (WNW) 17:38:00 437.445
SO-50 25 Jul 17:30:58 17:35:22 40° 53° (NE) 17:39:37 436.795
NOAA 15 25 Jul 17:31:01 17:35:22 27° 67° (ENE) 17:39:44 137.62
BRITE-PL 25 Jul 17:34:01 17:37:28 26° 70° (ENE) 17:40:54 437.365/2234.400
PHONESAT 2.4 25 Jul 17:34:06 17:36:29 20° 150° (SSE) 17:38:52 2401.200-2431.200
RS-15 25 Jul 17:46:59 17:58:57 60° 248° (WSW) 18:10:43 29.354- 29.394
MOZHAYETS 4 25 Jul 17:50:05 17:54:04 30° 290° (WNW) 17:58:02
HORYU 2 25 Jul 17:50:12 17:54:25 41° 261° (W) 17:58:41 437.375
AO-7 25 Jul 17:55:37 18:00:27 16° 269° (W) 18:05:20 29.400- 29.500
STARS 25 Jul 18:13:29 18:17:32 35° 289° (WNW) 18:21:34 437.465
Cubesat XI-IV 25 Jul 18:18:57 18:24:12 56° 72° (ENE) 18:29:28 437.490
GONETS M04 25 Jul 18:26:00 18:30:59 16° 298° (WNW) 18:36:00
Cosmos 2499 25 Jul 18:26:07 18:32:32 22° 294° (WNW) 18:38:56 435.465 / 435.565
CUTE-I 25 Jul 18:43:05 18:48:28 87° 257° (WSW) 18:53:53 437.470
GOMX 1 25 Jul 18:45:03 18:49:10 71° 76° (ENE) 18:53:26 467.674
DOVE 4 25 Jul 18:47:47 18:51:33 32° 70° (ENE) 18:55:31 437.250
LilacSat-2 25 Jul 18:52:02 18:55:51 63° 260° (W) 18:59:44 437.200
NOAA 18 25 Jul 19:03:30 19:08:54 56° 259° (WSW) 19:14:23 137.9125
CUBESAT XI-V 25 Jul 19:04:01 19:08:20 41° 288° (WNW) 19:12:40 437.345
PHONESAT 2.4 25 Jul 19:09:39 19:12:44 84° 166° (SSE) 19:15:49 2401.200-2431.200
NOAA 15 25 Jul 19:10:13 19:14:59 35° 262° (W) 19:19:46 137.62
SO-50 25 Jul 19:12:08 19:15:32 21° 250° (WSW) 19:18:51 436.795
BRITE-PL 25 Jul 19:12:41 19:15:57 22° 265° (W) 19:19:13 437.365/2234.400
CINEMA 3 25 Jul 19:13:39 19:16:46 19° 66° (ENE) 19:20:00 145.822/145.860
BEESAT 3 25 Jul 19:22:24 19:26:17 77° 121° (ESE) 19:30:15 437.485
BEESAT 2 25 Jul 19:25:02 19:28:44 40° 116° (ESE) 19:32:28 435.950
CANX-2 25 Jul 19:25:58 19:29:16 22° 68° (ENE) 19:32:33 2200.000
HO-68 25 Jul 19:27:55 19:34:28 40° 65° (ENE) 19:41:03 435.675
CUTE 1.7 + AOD 2 25 Jul 19:39:25 19:43:00 26° 70° (ENE) 19:46:35 437.475
STRAND 1 25 Jul 19:48:39 19:53:12 32° 97° (E) 19:57:43 437.568
Cubesat XI-IV 25 Jul 20:01:08 20:04:35 17° 268° (W) 20:08:04 437.490
RS-15 25 Jul 20:07:59 20:08:38 10° 268° (W) 20:09:17 29.354- 29.394
PCSat 25 Jul 20:11:59 20:17:24 83° 118° (ESE) 20:22:51 145.827
UWE-3 25 Jul 20:14:48 20:17:48 18° 65° (ENE) 20:20:51 435.000/436.395/437.385
ZACube-1 25 Jul 20:20:32 20:22:36 13° 63° (ENE) 20:24:41 437.345
FUNcube-1 25 Jul 20:20:55 20:22:43 12° 63° (ENE) 20:24:31 145.935
SEEDS 25 Jul 20:21:17 20:25:26 56° 75° (ENE) 20:29:35 437.485
DOVE 4 25 Jul 20:26:17 20:29:22 19° 267° (W) 20:32:34 437.250
CUBEBUG 2 25 Jul 20:31:40 20:35:51 37° 71° (ENE) 20:40:11 437.445
YUBILEINY 25 Jul 20:32:29 20:40:14 33° 71° (ENE) 20:47:53 435.215
COMPASS 1 25 Jul 20:36:28 20:40:34 58° 74° (ENE) 20:44:41 437.405
PHONESAT 2.4 25 Jul 20:46:17 20:49:21 61° 2° (N) 20:52:24 2401.200-2431.200
CINEMA 3 25 Jul 20:49:23 20:53:33 40° 263° (W) 20:57:57 145.822/145.860
CANX-2 25 Jul 21:01:10 21:04:56 30° 264° (W) 21:08:43 2200.000
BEESAT 3 25 Jul 21:03:06 21:04:29 11° 317° (NW) 21:05:51 437.485
Oscar 11 25 Jul 21:03:26 21:07:25 36° 72° (ENE) 21:11:25 145.826/435.025
BEESAT 2 25 Jul 21:03:56 21:06:43 18° 313° (NW) 21:09:33 435.950
AAUSAT CUBESAT 2 25 Jul 21:06:31 21:10:40 78° 257° (WSW) 21:14:51 437.432
PRISM 25 Jul 21:10:18 21:13:45 26° 97° (E) 21:17:13 437.425
AIST 2 25 Jul 21:11:07 21:14:31 26° 113° (ESE) 21:17:56 435.215
M-CUBED/EXP-1 PRIME 25 Jul 21:12:32 21:15:26 22° 62° (ENE) 21:18:32 437.505
CUTE 1.7 + AOD 2 25 Jul 21:15:17 21:18:46 24° 265° (W) 21:22:16 437.475
HO-68 25 Jul 21:15:34 21:22:08 38° 262° (W) 21:28:45 435.675
O/OREOS (USA 219) 25 Jul 21:27:01 21:31:28 87° 111° (ESE) 21:35:58 437.305
Cosmos 2504 25 Jul 21:27:42 21:33:48 22° 66° (ENE) 21:39:35 435.465 / 435.565
STRAND 1 25 Jul 21:27:56 21:32:15 28° 293° (WNW) 21:36:34 437.568
AUBIESAT-1 25 Jul 21:39:29 21:42:57 36° 66° (ENE) 21:46:40 437.475
DELFI C3 25 Jul 21:44:09 21:47:55 43° 73° (ENE) 21:51:42 145.870
HUMSAT D 25 Jul 21:48:41 21:52:09 24° 69° (ENE) 21:55:39 437.325/437.525
UWE-3 25 Jul 21:49:31 21:53:51 45° 262° (W) 21:58:19 435.000/436.395/437.385
Cosmos 2491 25 Jul 21:52:28 22:00:51 55° 90° (E) 22:09:14 435.465 / 435.565
ZACube-1 25 Jul 21:53:51 21:58:18 62° 259° (W) 22:02:52 437.345
FUNcube-1 25 Jul 21:53:52 21:58:20 67° 259° (W) 22:02:54 145.935
PCSat 25 Jul 21:58:10 22:01:29 16° 315° (NW) 22:04:49 145.827
SEEDS 25 Jul 22:00:14 22:01:27 11° 269° (W) 22:02:40 437.485
CUBEBUG 2 25 Jul 22:09:16 22:12:35 20° 267° (W) 22:16:00 437.445
COMPASS 1 25 Jul 22:15:42 22:16:28 10° 270° (W) 22:17:14 437.405
ISS 25 Jul 22:22:22 22:25:37 88° 322° (NW) 22:28:53 145.825
PHONESAT 2.4 25 Jul 22:22:51 22:25:54 64° 197° (SSW) 22:28:57 2401.200-2431.200
ANTELSAT 25 Jul 22:24:25 22:27:12 16° 92° (E) 22:29:56 437.575/2403.000
YUBILEINY 25 Jul 22:28:51 22:37:19 53° 270° (W) 22:45:44 435.215
Oscar 11 25 Jul 22:40:39 22:43:39 18° 267° (W) 22:46:40 145.826/435.025
PRISM 25 Jul 22:45:43 22:48:56 23° 292° (WNW) 22:52:09 437.425
M-CUBED/EXP-1 PRIME 25 Jul 22:46:47 22:49:50 25° 260° (W) 22:53:07 437.505
AIST 2 25 Jul 22:49:20 22:52:54 28° 309° (NW) 22:56:29 435.215
TIGRISAT 25 Jul 23:05:20 23:09:44 41° 98° (E) 23:14:01 435.000
AO-85 25 Jul 23:05:54 23:09:55 33° 51° (NE) 23:13:38 145.980
AISAT 25 Jul 23:06:50 23:09:54 19° 66° (ENE) 23:13:00 437.250
DX 1 25 Jul 23:13:03 23:15:35 15° 65° (ENE) 23:18:07 434.975-435.025
AUBIESAT-1 25 Jul 23:15:25 23:17:37 15° 264° (W) 23:19:54 437.475
Cosmos 2504 25 Jul 23:19:53 23:28:01 69° 267° (W) 23:35:30 435.465 / 435.565
UNISAT 6 25 Jul 23:20:59 23:25:37 66° 101° (E) 23:30:08 437.425
DELFI C3 25 Jul 23:21:08 23:22:58 13° 268° (W) 23:24:48 145.870
HUMSAT D 25 Jul 23:23:58 23:27:38 27° 264° (W) 23:31:20 437.325/437.525
UKube-1 25 Jul 23:29:23 23:32:19 18° 66° (ENE) 23:35:16 .
ESTCUBE 1 25 Jul 23:33:21 23:37:46 61° 75° (ENE) 23:42:13 437.505/2401.250
50 SAT 25 Jul 23:33:58 23:37:17 32° 72° (ENE) 23:40:34 437.505
QB50P1 25 Jul 23:39:35 23:42:01 15° 92° (E) 23:44:26 145.935-145.965
POPSAT HIP 1 25 Jul 23:45:32 23:48:22 17° 93° (E) 23:51:11 437.405
Cosmos 2491 25 Jul 23:50:34 23:58:01 31° 289° (WNW) 00:05:33 435.465 / 435.565
VELOX 1 25 Jul 23:57:02 00:01:21 64° 74° (ENE) 00:05:43 145.980
AIST 1 25 Jul 23:58:01 23:59:15 11° 70° (ENE) 00:00:27
ANTELSAT 25 Jul 23:59:41 00:04:10 47° 287° (WNW) 00:08:30 437.575/2403.000
PHONESAT 2.4 26 Jul 00:00:18 00:02:02 14° 213° (SSW) 00:03:45 2401.200-2431.200
ISS 26 Jul 00:00:20 00:02:27 16° 339° (NNW) 00:04:34 145.825
CUBEBUG 1 26 Jul 00:02:34 00:06:52 85° 78° (ENE) 00:11:12 437.445
SPROUT 26 Jul 00:04:51 00:08:41 34° 71° (ENE) 00:12:34 437.525
QB50P2 26 Jul 00:05:15 00:09:05 31° 97° (E) 00:12:52 145.880/145.840
POLYITAN 1 26 Jul 00:07:53 00:11:44 31° 97° (E) 00:15:33 437.675
AISAT 26 Jul 00:42:03 00:46:06 37° 262° (W) 00:50:11 437.250
TIGRISAT 26 Jul 00:42:50 00:46:05 19° 294° (WNW) 00:49:16 435.000
AO-85 26 Jul 00:46:53 00:50:05 21° 250° (WSW) 00:53:08 145.980
DX 1 26 Jul 00:47:13 00:51:22 46° 260° (W) 00:55:33 434.975-435.025
NANOSAT C BR1 26 Jul 00:52:14 00:56:32 83° 286° (WNW) 01:00:48 145.865
DUCHIFAT 1 26 Jul 00:57:19 01:01:36 77° 285° (WNW) 01:05:51 145.980
UNISAT 6 26 Jul 00:59:46 01:01:42 13° 298° (WNW) 01:03:38 437.425
UKube-1 26 Jul 01:04:05 01:08:04 37° 261° (W) 01:12:06 .
TISAT 1 26 Jul 01:06:00 01:09:53 38° 71° (ENE) 01:13:48 437.305
50 SAT 26 Jul 01:08:57 01:10:59 14° 267° (W) 01:13:02 437.505
ESTCUBE 1 26 Jul 01:13:27 01:14:57 11° 269° (W) 01:16:28 437.505/2401.250
QB50P1 26 Jul 01:13:55 01:18:00 43° 287° (WNW) 01:22:03 145.935-145.965
BUGSAT 1 26 Jul 01:18:25 01:22:41 80° 102° (ESE) 01:26:57 437.445
POPSAT HIP 1 26 Jul 01:20:18 01:24:16 38° 289° (WNW) 01:28:13 437.405
AIST 1 26 Jul 01:32:57 01:37:13 59° 266° (W) 01:41:29
VELOX 1 26 Jul 01:37:29 01:38:13 10° 270° (W) 01:38:57 145.980
QB50P2 26 Jul 01:41:25 01:44:41 21° 292° (WNW) 01:47:55 145.880/145.840
SPROUT 26 Jul 01:41:40 01:44:42 19° 266° (W) 01:47:45 437.525
JAS-2 26 Jul 01:43:37 01:48:56 85° 104° (ESE) 01:54:41 435.910
POLYITAN 1 26 Jul 01:44:05 01:47:19 21° 292° (WNW) 01:50:32 437.675
Gurwin Techsat 1B 26 Jul 01:53:14 01:55:16 12° 90° (E) 01:57:18 435.225
SWISSCUBE 26 Jul 01:57:55 02:02:08 32° 69° (ENE) 02:06:22 437.505
BEESAT 26 Jul 02:19:02 02:23:37 47° 72° (ENE) 02:28:13 436.000
Oscar 19 26 Jul 02:22:08 02:27:13 56° 100° (E) 02:32:18 437.125/150
Cosmos 2499 26 Jul 02:24:26 02:30:41 25° 68° (ENE) 02:36:34 435.465 / 435.565
GONETS M04 26 Jul 02:36:00 02:44:24 46° 75° (ENE) 02:52:47
ITUPSAT 1 26 Jul 02:40:53 02:45:41 78° 75° (ENE) 02:50:31 437.325
TISAT 1 26 Jul 02:43:04 02:45:40 16° 267° (W) 02:48:19 437.305
KKS-1 26 Jul 02:52:42 02:54:07 11° 62° (ENE) 02:55:32 437.445
MOZHAYETS 4 26 Jul 03:14:10 03:17:37 21° 67° (ENE) 03:21:04
ISS 26 Jul 03:15:36 03:17:34 15° 20° (NNE) 03:19:32 145.825
CUSAT 1 26 Jul 03:21:39 03:24:00 14° 95° (E) 03:26:05 437.405
Gurwin Techsat 1B 26 Jul 03:30:25 03:35:45 76° 285° (WNW) 03:41:02 435.225
JAS-2 26 Jul 03:31:42 03:33:24 11° 299° (WNW) 03:35:08 435.910
STARS 26 Jul 03:34:01 03:36:39 16° 65° (ENE) 03:39:18 437.465
